User: anonymous
Location: Allison's Woods
(35.8809°N, 80.8140°W)
Time: 09:57:45
(UTC-04:00)
Language:

Iridium 39 - Orbit

View from above orbital plane
View from above orbital plane
View from above satellite
View from above satellite

Ground track
Ground track

The orbit data is extracted from the following two-line orbital elements,

1 25042U 97069D   14112.47307948  .00000270  00000-0  89376-4 0  7810
2 25042 086.3953 143.5719 0002557 113.7930 246.3534 14.34218254861233
Epoch (UTC): 22 April 2014 11:21:14
Eccentricity: 0.0002557
inclination: 86.3953°
perigee height: 776 km
apogee height: 779 km
right ascension of ascending node: 143.5719°
argument of perigee: 113.7930°
revolutions per day: 14.34218254
mean anomaly at epoch: 246.3534°
orbit number at epoch: 86123

The dashed part of the orbit path shows where the satellite is in the earth's shadow,  

DLR